Regional Weather Roundup
Issued by NWS

Home | Current Version | Previous Version | Text Only | Print | Product List | Glossary On
Versions: 1 2 3 4 5 6 7 8 9 10 11 12 13 14 15 16 17 18 19 20 21 22 23 24 25 26 27 28 29 30 31 32 33 34 35 36 37 38 39 40 41 42 43 44 45 46 47 48 49 50
000
ASUS43 KDTX 230810
RWRMI
MICHIGAN HOURLY REGIONAL WEATHER ROUNDUP
NATIONAL WEATHER SERVICE DETROIT/PONTIAC MI
400 AM EDT WED AUG 23 2017

NOTE: "FAIR" INDICATES FEW OR NO CLOUDS BELOW 12,000 FEET WITH NO
SIGNIFICANT WEATHER AND/OR OBSTRUCTION TO VISIBILITY.

MIZ047>049-052>055-059>063-066>070-074>076-081>083-230900-
SOUTHEAST LOWER MICHIGAN

CITY           SKY/WX    TMP DP  RH WIND       PRES   REMARKS
ADRIAN         CLEAR     56  52  86 W5        29.96S
ALMA           CLEAR     56  53  90 SW5       29.92S
ANN ARBOR      CLEAR     52  51  97 S5        29.93S
BAD AXE        CLEAR     54  51  92 SW5       29.88S
CARO           CLEAR     52  50  93 SW3       29.89S
DETROIT CITY   CLEAR     61  53  75 W6        29.91S
DETROIT        CLEAR     59  53  80 SW6       29.93S
FLINT          CLEAR     56  52  86 W6        29.92R
GROSSE ILE     CLEAR     60  54  79 W3        29.92S
HILLSDALE      CLEAR     55  52  88 W5        29.96S
HOWELL         CLEAR     57  53  84 W7        29.93S

CITY           SKY/WX    TMP DP  RH WIND       PRES   REMARKS
JACKSON        CLEAR     57  53  86 W3        29.94S
LAMBERTVILLE   CLEAR     57  54  89 W5        29.94F
LANSING        PTCLDY    59  52  77 W6        29.94S
LAPEER         FAIR      58  52  80 W5        29.91S
MASON          CLEAR     59  53  80 W3        29.94S
MONROE         PTCLDY    53  52  96 W3        29.93S
MT. CLEMENS    PTCLDY    59  53  81 W7        29.89S
PONTIAC        CLEAR     59  54  83 W8        29.91R
PORT HOPE        N/A     57  52  83 SW5       29.84S
PORT HURON     CLEAR     52  50  93 CALM      29.89S
TRI CITIES     CLEAR     57  54  89 SW8       29.91R
MIDLAND        FAIR      56  53  88 W5        29.89S
TROY           CLEAR     62  52  70 W5        29.93S
SAGINAW HB     CLEAR     55  52  88 SW7       29.90R
$$
MIZ043>046-050>051-056>058-064>065-071>073-077>080-230900-
SOUTHWEST LOWER MICHIGAN

CITY           SKY/WX    TMP DP  RH WIND       PRES   REMARKS
BATTLE CREEK   MOCLDY    62  54  74 W9        29.96S
BENTON HARBOR  CLEAR     69  52  54 VRB7      29.98R
BIG RAPIDS     CLEAR     57  51  78 W6        29.91S
COLDWATER      CLEAR     56  56 100 W5        29.96S
FREMONT        FAIR      55  53  94 CALM      29.93S
HOLLAND        CLEAR     66  52  60 NW5       29.96R
GRAND RAPIDS   PTCLDY    61  55  81 W6        29.94S
IONIA          FAIR      57  52  84 W7        29.93S
KALAMAZOO      CLOUDY    62  52  69 W7        29.97R
LUDINGTON      CLEAR     63  53  70 NW8       29.91S
MARSHALL       CLOUDY    58  57  97 SW3       29.95S
MOUNT PLEASANT CLEAR     59  52  77 SW6       29.90S
MUSKEGON       CLEAR     68  50  52 NW12G23   29.94S
SOUTH HAVEN    CLEAR     69  51  53 NW9G16    29.97S
$$
MIZ016>042-230900-
NORTHERN LOWER MICHIGAN

CITY           SKY/WX    TMP DP  RH WIND       PRES   REMARKS
ALPENA         CLEAR     57  54  89 VRB5      29.83S
BEAVER ISLAND  PTCLDY    60  54  80 NW10      29.86R
BELLAIRE       MOCLDY    63  53  70 W6        29.86S
CADILLAC       PTCLDY    57  51  80 W7        29.90S
CHARLEVOIX     MOCLDY    62  54  74 W16       29.88R
FRANKFORT      PTCLDY    64  53  68 NW13      29.90R
GAYLORD        PTCLDY    53  49  86 W5        29.86R
GRAYLING       MOCLDY    54  50  87 W6        29.88R
HARBOR SPRINGS CLEAR     60  52  76 W7        29.84R
HOUGHTON LAKE  CLEAR     60  53  77 W10       29.89R
MANISTEE       CLEAR     64  53  67 NW12G20   29.90R
OSCODA         PTCLDY    57  51  80 W9        29.84S
PELLSTON       MOCLDY    60  54  80 W8        29.83R
ROGERS CITY    MOCLDY    55  52  88 W8        29.83R
TRAVERSE CITY  CLEAR     60  52  74 SW3       29.86S
$$
MIZ007>008-015-230900-
EASTERN UPPER MICHIGAN

CITY           SKY/WX    TMP DP  RH WIND       PRES   REMARKS
KINROSS        CLEAR     52  51  97 W9        29.80R
MACKINAC ISLAN PTCLDY    58  54  85 NW8G20    29.82R
NEWBERRY       CLOUDY    52  51  97 W7        29.82R
S. S. MARIE    MOCLDY    59  54  83 W13       29.77R
MUNISING         N/A     60  57  89 NW15G25   29.86R
$$
MIZ004>006-011>014-085-230900-
CENTRAL UPPER MICHIGAN

CITY           SKY/WX    TMP DP  RH WIND       PRES   REMARKS
MANISTIQUE     CLEAR     52  46  82 NW8       29.85R
ESCANABA       CLEAR     54  52  93 NW5       29.88R
MENOMINEE      CLEAR     55  52  89 VRB3      29.93R
SAWYER-GWINN   CLEAR     52  50  91 NW7       29.90R
$$
MIZ001>003-009>011-084-230900-
WESTERN UPPER MICHIGAN

CITY           SKY/WX    TMP DP  RH WIND       PRES   REMARKS
IRON MOUNTAIN  CLEAR     54  50  86 NW7       29.91R
HOUGHTON       CLOUDY    56  51  84 NW10      29.91R
COPPER HARBOR    N/A     57  51  80 N16       29.88R
IRONWOOD       MOCLDY    55  54  94 NW6       29.98R
$$

ABBREVIATIONS USED IN REMARKS
   TC - TEMPERATURE IN CELSIUS
  WCI - WIND CHILL INDEX
   HX - HEAT INDEX
  VSB - VISIBILITY





USA.gov is the U.S. government's official web portal to all federal, state and local government web resources and services.